contact:dominique.lefevre@mio.osupytheas.fr, maurice.libes@osupytheas.fr, didier.mallarino@osupytheas.fr
Project:EMSO http://www.emso-fr.org/EMSO-France
Depth: 2436.0 m
Title:EMSO Ligure Ouest : Data MII capteur MICROCAT
DateTime_Computer,Latitude,Longitude,Temperature,Conductivity,Pressure,DateTime_Instrument
DateTime_Computer,Latitude,Longitude,degC,S m-1,dbar,DateTime_Instrument
2019-07-15T00:00:40Z,42.805,6.029,13.2954,4.59956,2469.83,2019-7-15T02:00:58Z
2019-07-15T00:03:43Z,42.805,6.029,13.2957,4.59952,2469.806,2019-7-15T02:04:02Z
2019-07-15T00:06:46Z,42.805,6.029,13.2957,4.59953,2469.844,2019-7-15T02:07:05Z
2019-07-15T00:09:50Z,42.805,6.029,13.2957,4.59952,2469.853,2019-7-15T02:10:08Z
2019-07-15T00:12:53Z,42.805,6.029,13.2955,4.59953,2469.83,2019-7-15T02:13:11Z
2019-07-15T00:15:56Z,42.805,6.029,13.2953,4.59954,2469.867,2019-7-15T02:16:14Z
2019-07-15T00:18:59Z,42.805,6.029,13.2954,4.59953,2469.844,2019-7-15T02:19:18Z
2019-07-15T00:22:02Z,42.805,6.029,13.2957,4.59954,2469.867,2019-7-15T02:22:21Z
2019-07-15T00:25:06Z,42.805,6.029,13.2953,4.59956,2469.844,2019-7-15T02:25:24Z
2019-07-15T00:28:09Z,42.805,6.029,13.2957,4.59952,2469.806,2019-7-15T02:28:27Z
2019-07-15T00:31:12Z,42.805,6.029,13.2956,4.59953,2469.821,2019-7-15T02:31:30Z
2019-07-15T00:34:15Z,42.805,6.029,13.2957,4.59953,2469.853,2019-7-15T02:34:34Z
2019-07-15T00:37:19Z,42.805,6.029,13.2957,4.59954,2469.844,2019-7-15T02:37:37Z
2019-07-15T00:40:22Z,42.805,6.029,13.2953,4.59952,2469.806,2019-7-15T02:40:40Z
2019-07-15T00:43:25Z,42.805,6.029,13.2956,4.59953,2469.844,2019-7-15T02:43:43Z
2019-07-15T00:46:28Z,42.805,6.029,13.2957,4.59952,2469.821,2019-7-15T02:46:47Z
2019-07-15T00:49:31Z,42.805,6.029,13.2952,4.59954,2469.806,2019-7-15T02:49:50Z
2019-07-15T00:52:35Z,42.805,6.029,13.2957,4.59951,2469.806,2019-7-15T02:52:53Z
2019-07-15T00:55:38Z,42.805,6.029,13.2953,4.59951,2469.821,2019-7-15T02:55:56Z
2019-07-15T00:58:41Z,42.805,6.029,13.2955,4.59952,2469.806,2019-7-15T02:58:59Z
2019-07-15T01:01:44Z,42.805,6.029,13.2956,4.59953,2469.83,2019-7-15T03:02:03Z
2019-07-15T01:04:47Z,42.805,6.029,13.2957,4.59952,2469.806,2019-7-15T03:05:06Z
2019-07-15T01:07:51Z,42.805,6.029,13.2959,4.59953,2469.806,2019-7-15T03:08:09Z
2019-07-15T01:10:54Z,42.805,6.029,13.2954,4.59953,2469.821,2019-7-15T03:11:12Z
2019-07-15T01:13:57Z,42.805,6.029,13.2955,4.59954,2469.83,2019-7-15T03:14:15Z
2019-07-15T01:17:00Z,42.805,6.029,13.2958,4.59954,2469.797,2019-7-15T03:17:19Z
2019-07-15T01:20:04Z,42.805,6.029,13.2955,4.59954,2469.806,2019-7-15T03:20:22Z
2019-07-15T01:23:07Z,42.805,6.029,13.2956,4.59954,2469.844,2019-7-15T03:23:25Z
2019-07-15T01:26:10Z,42.805,6.029,13.2958,4.59954,2469.797,2019-7-15T03:26:28Z
2019-07-15T01:29:13Z,42.805,6.029,13.2952,4.59954,2469.806,2019-7-15T03:29:31Z
2019-07-15T01:32:16Z,42.805,6.029,13.2958,4.59952,2469.806,2019-7-15T03:32:35Z
2019-07-15T01:35:20Z,42.805,6.029,13.2954,4.59953,2469.844,2019-7-15T03:35:38Z
2019-07-15T01:38:23Z,42.805,6.029,13.2952,4.59951,2469.844,2019-7-15T03:38:41Z
2019-07-15T01:41:26Z,42.805,6.029,13.2958,4.59952,2469.867,2019-7-15T03:41:44Z
2019-07-15T01:44:29Z,42.805,6.029,13.2955,4.59952,2469.806,2019-7-15T03:44:47Z
2019-07-15T01:47:32Z,42.805,6.029,13.2954,4.59953,2469.783,2019-7-15T03:47:51Z
2019-07-15T01:50:36Z,42.805,6.029,13.2957,4.59958,2469.83,2019-7-15T03:50:54Z
2019-07-15T01:53:39Z,42.805,6.029,13.2953,4.59955,2469.821,2019-7-15T03:53:57Z
2019-07-15T01:56:42Z,42.805,6.029,13.2953,4.59952,2469.806,2019-7-15T03:57:00Z
2019-07-15T01:59:45Z,42.805,6.029,13.2954,4.59953,2469.83,2019-7-15T04:00:04Z
2019-07-15T02:02:49Z,42.805,6.029,13.2955,4.59952,2469.83,2019-7-15T04:03:07Z
2019-07-15T02:05:52Z,42.805,6.029,13.2955,4.59953,2469.821,2019-7-15T04:06:10Z
2019-07-15T02:08:55Z,42.805,6.029,13.2954,4.59954,2469.867,2019-7-15T04:09:13Z
2019-07-15T02:11:58Z,42.805,6.029,13.2955,4.59953,2469.853,2019-7-15T04:12:16Z
2019-07-15T02:15:01Z,42.805,6.029,13.2956,4.59955,2469.867,2019-7-15T04:15:20Z
2019-07-15T02:18:05Z,42.805,6.029,13.2951,4.59958,2469.83,2019-7-15T04:18:23Z
2019-07-15T02:21:08Z,42.805,6.029,13.2952,4.59954,2469.83,2019-7-15T04:21:26Z
2019-07-15T02:24:11Z,42.805,6.029,13.2955,4.59958,2469.821,2019-7-15T04:24:29Z
2019-07-15T02:27:14Z,42.805,6.029,13.2957,4.59953,2469.853,2019-7-15T04:27:33Z
2019-07-15T02:30:17Z,42.805,6.029,13.2958,4.59954,2469.821,2019-7-15T04:30:36Z
2019-07-15T02:33:21Z,42.805,6.029,13.2958,4.59955,2469.844,2019-7-15T04:33:39Z
2019-07-15T02:36:24Z,42.805,6.029,13.2957,4.59953,2469.806,2019-7-15T04:36:42Z
2019-07-15T02:39:27Z,42.805,6.029,13.2958,4.59953,2469.806,2019-7-15T04:39:46Z
2019-07-15T02:42:31Z,42.805,6.029,13.2954,4.59954,2469.83,2019-7-15T04:42:49Z
2019-07-15T02:45:34Z,42.805,6.029,13.2953,4.59955,2469.83,2019-7-15T04:45:52Z
2019-07-15T02:48:37Z,42.805,6.029,13.2952,4.59954,2469.821,2019-7-15T04:48:55Z
2019-07-15T02:51:40Z,42.805,6.029,13.2955,4.59954,2469.853,2019-7-15T04:51:59Z
2019-07-15T02:54:43Z,42.805,6.029,13.2953,4.59954,2469.876,2019-7-15T04:55:02Z
2019-07-15T02:57:47Z,42.805,6.029,13.2953,4.59954,2469.876,2019-7-15T04:58:05Z
2019-07-15T03:00:50Z,42.805,6.029,13.2955,4.59952,2469.853,2019-7-15T05:01:08Z
2019-07-15T03:03:53Z,42.805,6.029,13.2959,4.59953,2469.853,2019-7-15T05:04:12Z
2019-07-15T03:06:56Z,42.805,6.029,13.2953,4.59954,2469.853,2019-7-15T05:07:15Z
2019-07-15T03:10:00Z,42.805,6.029,13.2954,4.59954,2469.853,2019-7-15T05:10:18Z
2019-07-15T03:13:03Z,42.805,6.029,13.2957,4.59955,2469.867,2019-7-15T05:13:21Z
2019-07-15T03:16:06Z,42.805,6.029,13.2956,4.59955,2469.806,2019-7-15T05:16:24Z
2019-07-15T03:19:09Z,42.805,6.029,13.2953,4.59956,2469.876,2019-7-15T05:19:28Z
2019-07-15T03:22:12Z,42.805,6.029,13.2953,4.59957,2469.876,2019-7-15T05:22:31Z
2019-07-15T03:25:16Z,42.805,6.029,13.2956,4.59956,2469.853,2019-7-15T05:25:34Z
2019-07-15T03:28:19Z,42.805,6.029,13.2953,4.59954,2469.853,2019-7-15T05:28:37Z
2019-07-15T03:31:22Z,42.805,6.029,13.2954,4.59953,2469.89,2019-7-15T05:31:40Z
2019-07-15T03:34:25Z,42.805,6.029,13.2953,4.59955,2469.867,2019-7-15T05:34:44Z
2019-07-15T03:37:28Z,42.805,6.029,13.2956,4.59956,2469.876,2019-7-15T05:37:47Z
2019-07-15T03:40:32Z,42.805,6.029,13.2956,4.59955,2469.867,2019-7-15T05:40:50Z
2019-07-15T03:43:35Z,42.805,6.029,13.2961,4.59956,2469.89,2019-7-15T05:43:53Z
2019-07-15T03:46:38Z,42.805,6.029,13.2953,4.59956,2469.876,2019-7-15T05:46:56Z
2019-07-15T03:49:41Z,42.805,6.029,13.2955,4.59956,2469.853,2019-7-15T05:50:00Z
2019-07-15T03:52:44Z,42.805,6.029,13.2955,4.59954,2469.9,2019-7-15T05:53:03Z
2019-07-15T03:55:48Z,42.805,6.029,13.2957,4.59954,2469.853,2019-7-15T05:56:06Z
2019-07-15T03:58:51Z,42.805,6.029,13.2956,4.59956,2469.89,2019-7-15T05:59:09Z
2019-07-15T04:01:54Z,42.805,6.029,13.2956,4.59956,2469.876,2019-7-15T06:02:13Z
2019-07-15T04:04:58Z,42.805,6.029,13.2959,4.59956,2469.914,2019-7-15T06:05:16Z
2019-07-15T04:08:01Z,42.805,6.029,13.2959,4.59956,2469.89,2019-7-15T06:08:19Z
2019-07-15T04:11:04Z,42.805,6.029,13.2957,4.59960,2469.9,2019-7-15T06:11:22Z
2019-07-15T04:14:07Z,42.805,6.029,13.2954,4.59954,2469.914,2019-7-15T06:14:26Z
2019-07-15T04:17:11Z,42.805,6.029,13.2954,4.59955,2469.89,2019-7-15T06:17:29Z
2019-07-15T04:20:14Z,42.805,6.029,13.2954,4.59958,2469.89,2019-7-15T06:20:32Z
2019-07-15T04:23:17Z,42.805,6.029,13.2957,4.59954,2469.89,2019-7-15T06:23:36Z
2019-07-15T04:26:21Z,42.805,6.029,13.2958,4.59954,2469.914,2019-7-15T06:26:39Z
2019-07-15T04:29:24Z,42.805,6.029,13.2957,4.59955,2469.9,2019-7-15T06:29:42Z
2019-07-15T04:32:27Z,42.805,6.029,13.2958,4.59954,2469.914,2019-7-15T06:32:45Z
2019-07-15T04:35:30Z,42.805,6.029,13.2957,4.59955,2469.937,2019-7-15T06:35:49Z
2019-07-15T04:38:34Z,42.805,6.029,13.2956,4.59956,2469.937,2019-7-15T06:38:52Z
2019-07-15T04:41:37Z,42.805,6.029,13.2955,4.59956,2469.9,2019-7-15T06:41:55Z
2019-07-15T04:44:40Z,42.805,6.029,13.2957,4.59955,2469.9,2019-7-15T06:44:59Z
2019-07-15T04:47:44Z,42.805,6.029,13.2957,4.59955,2469.914,2019-7-15T06:48:02Z
2019-07-15T04:50:47Z,42.805,6.029,13.2958,4.59971,2469.914,2019-7-15T06:51:05Z
2019-07-15T04:53:50Z,42.805,6.029,13.2953,4.59956,2469.89,2019-7-15T06:54:09Z
2019-07-15T04:56:53Z,42.805,6.029,13.2957,4.59955,2469.937,2019-7-15T06:57:12Z
2019-07-15T04:59:57Z,42.805,6.029,13.2957,4.59955,2469.89,2019-7-15T07:00:15Z
2019-07-15T05:03:00Z,42.805,6.029,13.2957,4.59954,2469.9,2019-7-15T07:03:18Z
2019-07-15T05:06:03Z,42.805,6.029,13.2953,4.59956,2469.937,2019-7-15T07:06:22Z
2019-07-15T05:09:07Z,42.805,6.029,13.2958,4.59956,2469.914,2019-7-15T07:09:25Z
2019-07-15T05:12:10Z,42.805,6.029,13.2959,4.59960,2469.96,2019-7-15T07:12:28Z
2019-07-15T05:15:13Z,42.805,6.029,13.2957,4.59956,2469.876,2019-7-15T07:15:32Z
2019-07-15T05:18:17Z,42.805,6.029,13.2958,4.59957,2469.937,2019-7-15T07:18:35Z
2019-07-15T05:21:20Z,42.805,6.029,13.2958,4.59958,2469.923,2019-7-15T07:21:38Z
2019-07-15T05:24:23Z,42.805,6.029,13.2957,4.59956,2469.9,2019-7-15T07:24:41Z
2019-07-15T05:27:26Z,42.805,6.029,13.2957,4.59956,2469.914,2019-7-15T07:27:45Z
2019-07-15T05:30:30Z,42.805,6.029,13.2956,4.59956,2469.9,2019-7-15T07:30:48Z
2019-07-15T05:33:33Z,42.805,6.029,13.2957,4.59956,2469.914,2019-7-15T07:33:51Z
2019-07-15T05:36:36Z,42.805,6.029,13.2957,4.59955,2469.914,2019-7-15T07:36:55Z
2019-07-15T05:39:40Z,42.805,6.029,13.2957,4.59955,2469.923,2019-7-15T07:39:58Z
2019-07-15T05:42:43Z,42.805,6.029,13.2956,4.59955,2469.923,2019-7-15T07:43:01Z
2019-07-15T05:45:46Z,42.805,6.029,13.2956,4.59954,2469.937,2019-7-15T07:46:05Z
2019-07-15T05:48:50Z,42.805,6.029,13.2956,4.59960,2469.937,2019-7-15T07:49:08Z
2019-07-15T05:51:53Z,42.805,6.029,13.2953,4.59955,2469.9,2019-7-15T07:52:11Z
2019-07-15T05:54:56Z,42.805,6.029,13.2953,4.59956,2469.876,2019-7-15T07:55:15Z
2019-07-15T05:58:00Z,42.805,6.029,13.2955,4.59954,2469.9,2019-7-15T07:58:18Z
2019-07-15T06:01:03Z,42.805,6.029,13.2954,4.59955,2469.914,2019-7-15T08:01:21Z
2019-07-15T06:04:06Z,42.805,6.029,13.2957,4.59954,2469.923,2019-7-15T08:04:25Z
2019-07-15T06:07:10Z,42.805,6.029,13.2956,4.59956,2469.9,2019-7-15T08:07:28Z
2019-07-15T06:10:13Z,42.805,6.029,13.2957,4.59955,2469.914,2019-7-15T08:10:31Z
2019-07-15T06:13:16Z,42.805,6.029,13.2954,4.59954,2469.937,2019-7-15T08:13:34Z
2019-07-15T06:16:19Z,42.805,6.029,13.2957,4.59954,2469.937,2019-7-15T08:16:38Z
2019-07-15T06:19:23Z,42.805,6.029,13.2953,4.59954,2469.923,2019-7-15T08:19:41Z
2019-07-15T06:22:26Z,42.805,6.029,13.2953,4.59956,2469.97,2019-7-15T08:22:44Z
2019-07-15T06:25:29Z,42.805,6.029,13.2955,4.59954,2469.9,2019-7-15T08:25:48Z
2019-07-15T06:28:33Z,42.805,6.029,13.2956,4.59955,2469.9,2019-7-15T08:28:51Z
2019-07-15T06:31:36Z,42.805,6.029,13.2956,4.59956,2469.937,2019-7-15T08:31:54Z
2019-07-15T06:34:39Z,42.805,6.029,13.2953,4.59956,2469.9,2019-7-15T08:34:57Z
2019-07-15T06:37:42Z,42.805,6.029,13.2953,4.59956,2469.9,2019-7-15T08:38:01Z
2019-07-15T06:40:46Z,42.805,6.029,13.2954,4.59961,2469.923,2019-7-15T08:41:04Z
2019-07-15T06:43:49Z,42.805,6.029,13.2955,4.59957,2469.923,2019-7-15T08:44:07Z
2019-07-15T06:46:52Z,42.805,6.029,13.2959,4.59957,2469.89,2019-7-15T08:47:11Z
2019-07-15T06:49:56Z,42.805,6.029,13.2956,4.59954,2469.914,2019-7-15T08:50:14Z
2019-07-15T06:52:59Z,42.805,6.029,13.2955,4.59955,2469.937,2019-7-15T08:53:17Z
2019-07-15T06:56:02Z,42.805,6.029,13.2956,4.59957,2469.923,2019-7-15T08:56:20Z
2019-07-15T06:59:05Z,42.805,6.029,13.2952,4.59956,2469.937,2019-7-15T08:59:24Z
2019-07-15T07:02:09Z,42.805,6.029,13.2961,4.59956,2469.9,2019-7-15T09:02:27Z
2019-07-15T07:05:12Z,42.805,6.029,13.2958,4.59956,2469.937,2019-7-15T09:05:30Z
2019-07-15T07:08:15Z,42.805,6.029,13.2957,4.59956,2469.914,2019-7-15T09:08:34Z
2019-07-15T07:11:19Z,42.805,6.029,13.2953,4.59958,2469.914,2019-7-15T09:11:37Z
2019-07-15T07:14:22Z,42.805,6.029,13.2953,4.59957,2469.9,2019-7-15T09:14:40Z
2019-07-15T07:17:25Z,42.805,6.029,13.2955,4.59960,2469.89,2019-7-15T09:17:44Z
2019-07-15T07:20:29Z,42.805,6.029,13.2953,4.59958,2469.876,2019-7-15T09:20:47Z
2019-07-15T07:23:32Z,42.805,6.029,13.2957,4.59958,2469.914,2019-7-15T09:23:50Z
2019-07-15T07:26:35Z,42.805,6.029,13.2960,4.59959,2469.9,2019-7-15T09:26:53Z
2019-07-15T07:29:38Z,42.805,6.029,13.2956,4.59957,2469.876,2019-7-15T09:29:57Z
2019-07-15T07:32:42Z,42.805,6.029,13.2953,4.59956,2469.867,2019-7-15T09:33:00Z
2019-07-15T07:35:45Z,42.805,6.029,13.2957,4.59957,2469.914,2019-7-15T09:36:03Z
2019-07-15T07:38:48Z,42.805,6.029,13.2953,4.59956,2469.853,2019-7-15T09:39:07Z
2019-07-15T07:41:51Z,42.805,6.029,13.2958,4.59955,2469.876,2019-7-15T09:42:10Z
2019-07-15T07:44:55Z,42.805,6.029,13.2959,4.59955,2469.876,2019-7-15T09:45:13Z
2019-07-15T07:47:58Z,42.805,6.029,13.2957,4.59956,2469.853,2019-7-15T09:48:16Z
2019-07-15T07:51:01Z,42.805,6.029,13.2957,4.59956,2469.853,2019-7-15T09:51:20Z
2019-07-15T07:54:05Z,42.805,6.029,13.2957,4.59957,2469.876,2019-7-15T09:54:23Z
2019-07-15T07:57:08Z,42.805,6.029,13.2955,4.59958,2469.867,2019-7-15T09:57:26Z
2019-07-15T08:00:11Z,42.805,6.029,13.2954,4.59962,2469.867,2019-7-15T10:00:30Z
2019-07-15T08:03:14Z,42.805,6.029,13.2958,4.59956,2469.89,2019-7-15T10:03:33Z
2019-07-15T08:06:18Z,42.805,6.029,13.2953,4.59957,2469.867,2019-7-15T10:06:36Z
2019-07-15T08:09:21Z,42.805,6.029,13.2956,4.59957,2469.867,2019-7-15T10:09:39Z
2019-07-15T08:12:24Z,42.805,6.029,13.2955,4.59957,2469.876,2019-7-15T10:12:43Z
2019-07-15T08:15:28Z,42.805,6.029,13.2958,4.59961,2469.83,2019-7-15T10:15:46Z
2019-07-15T08:18:31Z,42.805,6.029,13.2953,4.59958,2469.853,2019-7-15T10:18:49Z
2019-07-15T08:21:34Z,42.805,6.029,13.2957,4.59959,2469.853,2019-7-15T10:21:53Z
2019-07-15T08:24:38Z,42.805,6.029,13.2954,4.59956,2469.876,2019-7-15T10:24:56Z
2019-07-15T08:27:41Z,42.805,6.029,13.2957,4.59958,2469.867,2019-7-15T10:28:00Z
2019-07-15T08:30:44Z,42.805,6.029,13.2954,4.59964,2469.876,2019-7-15T10:31:03Z
2019-07-15T08:33:48Z,42.805,6.029,13.2955,4.59958,2469.821,2019-7-15T10:34:06Z
2019-07-15T08:36:51Z,42.805,6.029,13.2958,4.59964,2469.844,2019-7-15T10:37:09Z
2019-07-15T08:39:54Z,42.805,6.029,13.2964,4.59964,2469.853,2019-7-15T10:40:13Z
2019-07-15T08:42:58Z,42.805,6.029,13.2958,4.59968,2469.844,2019-7-15T10:43:16Z
2019-07-15T08:46:01Z,42.805,6.029,13.2953,4.59962,2469.867,2019-7-15T10:46:19Z
2019-07-15T08:49:04Z,42.805,6.029,13.2953,4.59964,2469.844,2019-7-15T10:49:23Z
2019-07-15T08:52:08Z,42.805,6.029,13.2956,4.59965,2469.853,2019-7-15T10:52:26Z
2019-07-15T08:55:11Z,42.805,6.029,13.2955,4.59985,2469.83,2019-7-15T10:55:29Z
2019-07-15T08:58:14Z,42.805,6.029,13.2953,4.59959,2469.867,2019-7-15T10:58:33Z
2019-07-15T09:01:18Z,42.805,6.029,13.2956,4.59963,2469.806,2019-7-15T11:01:36Z
2019-07-15T09:04:21Z,42.805,6.029,13.2955,4.59957,2469.83,2019-7-15T11:04:39Z
2019-07-15T09:07:24Z,42.805,6.029,13.2956,4.59956,2469.867,2019-7-15T11:07:43Z
2019-07-15T09:10:27Z,42.805,6.029,13.2957,4.59957,2469.806,2019-7-15T11:10:46Z
2019-07-15T09:13:31Z,42.805,6.029,13.2956,4.59956,2469.821,2019-7-15T11:13:49Z
2019-07-15T09:16:34Z,42.805,6.029,13.2953,4.59958,2469.853,2019-7-15T11:16:53Z
2019-07-15T09:19:38Z,42.805,6.029,13.2954,4.59957,2469.821,2019-7-15T11:19:56Z
2019-07-15T09:22:41Z,42.805,6.029,13.2957,4.59980,2469.83,2019-7-15T11:22:59Z
2019-07-15T09:25:44Z,42.805,6.029,13.2956,4.59958,2469.83,2019-7-15T11:26:03Z
2019-07-15T09:28:48Z,42.805,6.029,13.2953,4.59956,2469.821,2019-7-15T11:29:06Z
2019-07-15T09:31:51Z,42.805,6.029,13.2958,4.59955,2469.83,2019-7-15T11:32:09Z
2019-07-15T09:34:54Z,42.805,6.029,13.2953,4.59956,2469.83,2019-7-15T11:35:13Z
2019-07-15T09:37:58Z,42.805,6.029,13.2953,4.59956,2469.821,2019-7-15T11:38:16Z
2019-07-15T09:41:01Z,42.805,6.029,13.2952,4.59956,2469.806,2019-7-15T11:41:19Z
2019-07-15T09:44:04Z,42.805,6.029,13.2957,4.59956,2469.797,2019-7-15T11:44:23Z
2019-07-15T09:47:07Z,42.805,6.029,13.2957,4.59959,2469.844,2019-7-15T11:47:26Z
2019-07-15T09:50:11Z,42.805,6.029,13.2953,4.59956,2469.806,2019-7-15T11:50:29Z
2019-07-15T09:53:14Z,42.805,6.029,13.2957,4.59960,2469.783,2019-7-15T11:53:32Z
2019-07-15T09:56:17Z,42.805,6.029,13.2955,4.59958,2469.797,2019-7-15T11:56:36Z
2019-07-15T09:59:21Z,42.805,6.029,13.2956,4.59958,2469.783,2019-7-15T11:59:39Z
2019-07-15T10:02:24Z,42.805,6.029,13.2958,4.59959,2469.806,2019-7-15T12:02:42Z
2019-07-15T10:05:27Z,42.805,6.029,13.2953,4.59956,2469.821,2019-7-15T12:05:46Z
2019-07-15T10:08:31Z,42.805,6.029,13.2957,4.59957,2469.821,2019-7-15T12:08:49Z
2019-07-15T10:11:34Z,42.805,6.029,13.2955,4.59957,2469.783,2019-7-15T12:11:52Z
2019-07-15T10:14:37Z,42.805,6.029,13.2956,4.59958,2469.806,2019-7-15T12:14:55Z
2019-07-15T10:17:40Z,42.805,6.029,13.2957,4.59959,2469.844,2019-7-15T12:17:59Z
2019-07-15T10:20:44Z,42.805,6.029,13.2957,4.59959,2469.773,2019-7-15T12:21:02Z
2019-07-15T10:23:47Z,42.805,6.029,13.2955,4.59961,2469.76,2019-7-15T12:24:05Z
2019-07-15T10:26:50Z,42.805,6.029,13.2953,4.59961,2469.76,2019-7-15T12:27:08Z
2019-07-15T10:29:53Z,42.805,6.029,13.2957,4.59958,2469.797,2019-7-15T12:30:12Z
2019-07-15T10:32:57Z,42.805,6.029,13.2953,4.59959,2469.797,2019-7-15T12:33:15Z
2019-07-15T10:36:00Z,42.805,6.029,13.2956,4.59958,2469.773,2019-7-15T12:36:18Z
2019-07-15T10:39:03Z,42.805,6.029,13.2953,4.59960,2469.797,2019-7-15T12:39:21Z
2019-07-15T10:42:06Z,42.805,6.029,13.2958,4.59960,2469.76,2019-7-15T12:42:25Z
2019-07-15T10:45:09Z,42.805,6.029,13.2958,4.59968,2469.806,2019-7-15T12:45:28Z
2019-07-15T10:48:13Z,42.805,6.029,13.2957,4.59958,2469.773,2019-7-15T12:48:31Z
2019-07-15T10:51:16Z,42.805,6.029,13.2953,4.59955,2469.773,2019-7-15T12:51:34Z
2019-07-15T10:54:19Z,42.805,6.029,13.2953,4.59958,2469.783,2019-7-15T12:54:37Z
2019-07-15T10:57:22Z,42.805,6.029,13.2957,4.59956,2469.773,2019-7-15T12:57:41Z
2019-07-15T11:00:25Z,42.805,6.029,13.2953,4.59957,2469.76,2019-7-15T13:00:44Z
2019-07-15T11:03:29Z,42.805,6.029,13.2953,4.59957,2469.783,2019-7-15T13:03:47Z
2019-07-15T11:06:32Z,42.805,6.029,13.2955,4.59965,2469.76,2019-7-15T13:06:50Z
2019-07-15T11:09:35Z,42.805,6.029,13.2958,4.59961,2469.783,2019-7-15T13:09:53Z
2019-07-15T11:12:38Z,42.805,6.029,13.2954,4.59961,2469.773,2019-7-15T13:12:57Z
2019-07-15T11:15:41Z,42.805,6.029,13.2953,4.59959,2469.783,2019-7-15T13:16:00Z
2019-07-15T11:18:45Z,42.805,6.029,13.2958,4.59958,2469.773,2019-7-15T13:19:03Z
2019-07-15T11:21:48Z,42.805,6.029,13.2954,4.59960,2469.76,2019-7-15T13:22:06Z
2019-07-15T11:24:51Z,42.805,6.029,13.2953,4.59958,2469.773,2019-7-15T13:25:09Z
2019-07-15T11:27:54Z,42.805,6.029,13.2956,4.59966,2469.737,2019-7-15T13:28:13Z
2019-07-15T11:30:57Z,42.805,6.029,13.2953,4.59966,2469.737,2019-7-15T13:31:16Z
2019-07-15T11:34:01Z,42.805,6.029,13.2958,4.59960,2469.75,2019-7-15T13:34:19Z
2019-07-15T11:37:04Z,42.805,6.029,13.2955,4.59964,2469.773,2019-7-15T13:37:22Z
2019-07-15T11:40:07Z,42.805,6.029,13.2958,4.59963,2469.773,2019-7-15T13:40:26Z
2019-07-15T11:43:10Z,42.805,6.029,13.2957,4.59958,2469.773,2019-7-15T13:43:29Z
2019-07-15T11:46:14Z,42.805,6.029,13.2957,4.59958,2469.783,2019-7-15T13:46:32Z
2019-07-15T11:49:17Z,42.805,6.029,13.2955,4.59959,2469.75,2019-7-15T13:49:35Z
2019-07-15T11:52:20Z,42.805,6.029,13.2958,4.59978,2469.723,2019-7-15T13:52:38Z
2019-07-15T11:55:23Z,42.805,6.029,13.2958,4.59960,2469.737,2019-7-15T13:55:42Z
2019-07-15T11:58:27Z,42.805,6.029,13.2957,4.59957,2469.737,2019-7-15T13:58:45Z
2019-07-15T12:01:30Z,42.805,6.029,13.2954,4.59960,2469.773,2019-7-15T14:01:48Z
2019-07-15T12:04:33Z,42.805,6.029,13.2956,4.59960,2469.76,2019-7-15T14:04:51Z
2019-07-15T12:07:36Z,42.805,6.029,13.2959,4.59959,2469.75,2019-7-15T14:07:55Z
2019-07-15T12:10:39Z,42.805,6.029,13.2954,4.59961,2469.75,2019-7-15T14:10:58Z
2019-07-15T12:13:43Z,42.805,6.029,13.2956,4.59958,2469.727,2019-7-15T14:14:01Z
2019-07-15T12:16:46Z,42.805,6.029,13.2955,4.59957,2469.713,2019-7-15T14:17:04Z
2019-07-15T12:19:49Z,42.805,6.029,13.2959,4.59958,2469.76,2019-7-15T14:20:07Z
2019-07-15T12:22:52Z,42.805,6.029,13.2955,4.59958,2469.737,2019-7-15T14:23:11Z
2019-07-15T12:25:56Z,42.805,6.029,13.2953,4.59966,2469.75,2019-7-15T14:26:14Z
2019-07-15T12:28:59Z,42.805,6.029,13.2958,4.59958,2469.75,2019-7-15T14:29:17Z
2019-07-15T12:32:02Z,42.805,6.029,13.2953,4.59958,2469.76,2019-7-15T14:32:20Z
2019-07-15T12:35:05Z,42.805,6.029,13.2957,4.59960,2469.727,2019-7-15T14:35:24Z
2019-07-15T12:38:08Z,42.805,6.029,13.2958,4.59961,2469.737,2019-7-15T14:38:27Z
2019-07-15T12:41:12Z,42.805,6.029,13.2957,4.59961,2469.76,2019-7-15T14:41:30Z
2019-07-15T12:44:15Z,42.805,6.029,13.2956,4.59960,2469.737,2019-7-15T14:44:33Z
2019-07-15T12:47:18Z,42.805,6.029,13.2959,4.59967,2469.713,2019-7-15T14:47:36Z
2019-07-15T12:50:21Z,42.805,6.029,13.2960,4.59966,2469.737,2019-7-15T14:50:40Z
2019-07-15T12:53:24Z,42.805,6.029,13.2960,4.59963,2469.737,2019-7-15T14:53:43Z
2019-07-15T12:56:28Z,42.805,6.029,13.2959,4.59961,2469.737,2019-7-15T14:56:46Z
2019-07-15T12:59:31Z,42.805,6.029,13.2958,4.59967,2469.773,2019-7-15T14:59:49Z
2019-07-15T13:02:34Z,42.805,6.029,13.2961,4.59971,2469.737,2019-7-15T15:02:52Z
2019-07-15T13:05:37Z,42.805,6.029,13.2962,4.59961,2469.773,2019-7-15T15:05:56Z
2019-07-15T13:08:41Z,42.805,6.029,13.2961,4.59971,2469.75,2019-7-15T15:08:59Z
2019-07-15T13:11:44Z,42.805,6.029,13.2968,4.59966,2469.727,2019-7-15T15:12:02Z
2019-07-15T13:14:47Z,42.805,6.029,13.2971,4.59961,2469.737,2019-7-15T15:15:05Z
2019-07-15T13:17:50Z,42.805,6.029,13.2967,4.59970,2469.75,2019-7-15T15:18:08Z
2019-07-15T13:20:53Z,42.805,6.029,13.2956,4.59978,2469.76,2019-7-15T15:21:12Z
2019-07-15T13:23:57Z,42.805,6.029,13.2955,4.59961,2469.75,2019-7-15T15:24:15Z
2019-07-15T13:27:00Z,42.805,6.029,13.2960,4.59958,2469.737,2019-7-15T15:27:18Z
2019-07-15T13:30:03Z,42.805,6.029,13.2964,4.59966,2469.76,2019-7-15T15:30:21Z
2019-07-15T13:33:06Z,42.805,6.029,13.2960,4.59966,2469.76,2019-7-15T15:33:24Z
2019-07-15T13:36:09Z,42.805,6.029,13.2961,4.59970,2469.773,2019-7-15T15:36:28Z
2019-07-15T13:39:12Z,42.805,6.029,13.2962,4.59966,2469.75,2019-7-15T15:39:31Z
2019-07-15T13:42:16Z,42.805,6.029,13.2957,4.59961,2469.75,2019-7-15T15:42:34Z
2019-07-15T13:45:19Z,42.805,6.029,13.2958,4.59958,2469.75,2019-7-15T15:45:37Z
2019-07-15T13:48:22Z,42.805,6.029,13.2961,4.59961,2469.75,2019-7-15T15:48:40Z
2019-07-15T13:51:25Z,42.805,6.029,13.2966,4.59961,2469.773,2019-7-15T15:51:44Z
2019-07-15T13:54:28Z,42.805,6.029,13.2954,4.59968,2469.75,2019-7-15T15:54:47Z
2019-07-15T13:57:32Z,42.805,6.029,13.2957,4.59961,2469.773,2019-7-15T15:57:50Z
2019-07-15T14:00:35Z,42.805,6.029,13.2957,4.59968,2469.76,2019-7-15T16:00:53Z
2019-07-15T14:03:38Z,42.805,6.029,13.2954,4.59986,2469.783,2019-7-15T16:03:56Z
2019-07-15T14:06:41Z,42.805,6.029,13.2957,4.59961,2469.773,2019-7-15T16:07:00Z
2019-07-15T14:09:44Z,42.805,6.029,13.2958,4.59962,2469.797,2019-7-15T16:10:03Z
2019-07-15T14:12:48Z,42.805,6.029,13.2958,4.59959,2469.783,2019-7-15T16:13:06Z
2019-07-15T14:15:51Z,42.805,6.029,13.2957,4.59972,2469.773,2019-7-15T16:16:09Z
2019-07-15T14:18:54Z,42.805,6.029,13.2964,4.59964,2469.797,2019-7-15T16:19:12Z
2019-07-15T14:21:57Z,42.805,6.029,13.2964,4.59968,2469.76,2019-7-15T16:22:16Z
2019-07-15T14:25:00Z,42.805,6.029,13.2962,4.59961,2469.76,2019-7-15T16:25:19Z
2019-07-15T14:28:04Z,42.805,6.029,13.2958,4.59960,2469.76,2019-7-15T16:28:22Z
2019-07-15T14:31:07Z,42.805,6.029,13.2958,4.59961,2469.783,2019-7-15T16:31:25Z
2019-07-15T14:34:10Z,42.805,6.029,13.2958,4.59964,2469.76,2019-7-15T16:34:29Z
2019-07-15T14:37:14Z,42.805,6.029,13.2962,4.59960,2469.76,2019-7-15T16:37:32Z
2019-07-15T14:40:17Z,42.805,6.029,13.2961,4.59959,2469.806,2019-7-15T16:40:35Z
2019-07-15T14:43:20Z,42.805,6.029,13.2960,4.59959,2469.783,2019-7-15T16:43:38Z
2019-07-15T14:46:23Z,42.805,6.029,13.2962,4.59961,2469.773,2019-7-15T16:46:42Z
2019-07-15T14:49:26Z,42.805,6.029,13.2956,4.59964,2469.844,2019-7-15T16:49:45Z
2019-07-15T14:52:30Z,42.805,6.029,13.2961,4.59964,2469.806,2019-7-15T16:52:48Z
2019-07-15T14:55:33Z,42.805,6.029,13.2961,4.59960,2469.821,2019-7-15T16:55:51Z
2019-07-15T14:58:36Z,42.805,6.029,13.2960,4.59961,2469.773,2019-7-15T16:58:54Z
2019-07-15T15:01:39Z,42.805,6.029,13.2961,4.59959,2469.806,2019-7-15T17:01:58Z
2019-07-15T15:04:42Z,42.805,6.029,13.2961,4.59963,2469.806,2019-7-15T17:05:01Z
2019-07-15T15:07:46Z,42.805,6.029,13.2963,4.59961,2469.806,2019-7-15T17:08:04Z
2019-07-15T15:10:49Z,42.805,6.029,13.2959,4.59961,2469.806,2019-7-15T17:11:07Z
2019-07-15T15:13:53Z,42.805,6.029,13.2964,4.59961,2469.844,2019-7-15T17:14:11Z